RYR53C EHEH-EGGP

Flight info

Callsign RYR53C
Flight time N/A
Altitude 36000
Route ABNED L980 LAM UN57 WELIN T420 ELVOS
Aircraft B738/M-SDE2E3FGHIRWXY/LB1

Departure

Time 2026-04-27 16:49
Airport Eindhoven Airport (EHEH)

Arrival

Time N/A
Airport Liverpool John Lennon Airport (EGGP)
Time Latitude Longitude Altitude Speed Heading
2026-04-27 16:20 51.45591 5.38777 82 ft 0 kts 125°
2026-04-27 16:32 51.45593 5.38773 86 ft 3 kts 124°
2026-04-27 16:33 51.45617 5.38698 82 ft 4 kts 104°
2026-04-27 16:33 51.45619 5.38657 84 ft 4 kts 70°
2026-04-27 16:33 51.45612 5.38637 82 ft 0 kts 35°
2026-04-27 16:36 51.45612 5.38638 82 ft 1 kts 35°
2026-04-27 16:36 51.45654 5.38685 86 ft 12 kts 35°
2026-04-27 16:36 51.45729 5.38770 84 ft 13 kts 35°
2026-04-27 16:37 51.45810 5.38786 82 ft 13 kts 317°
2026-04-27 16:37 51.45845 5.38713 82 ft 0 kts 305°
2026-04-27 16:40 51.45850 5.38702 82 ft 6 kts 305°
2026-04-27 16:40 51.45905 5.38578 87 ft 21 kts 305°
2026-04-27 16:41 51.45992 5.38380 86 ft 21 kts 305°
2026-04-27 16:41 51.45968 5.38235 86 ft 16 kts 216°
2026-04-27 16:41 51.45869 5.38124 83 ft 20 kts 214°
2026-04-27 16:41 51.45733 5.37973 83 ft 25 kts 215°
2026-04-27 16:42 51.45593 5.37817 86 ft 24 kts 215°
2026-04-27 16:42 51.45465 5.37670 85 ft 23 kts 216°
2026-04-27 16:42 51.45337 5.37528 83 ft 22 kts 215°
2026-04-27 16:42 51.45214 5.37388 84 ft 21 kts 213°
2026-04-27 16:43 51.45092 5.37258 85 ft 21 kts 214°
2026-04-27 16:43 51.44977 5.37124 82 ft 20 kts 216°
2026-04-27 16:43 51.44865 5.36997 82 ft 19 kts 214°
2026-04-27 16:43 51.44740 5.36858 82 ft 28 kts 214°
2026-04-27 16:44 51.44575 5.36674 82 ft 20 kts 216°
2026-04-27 16:44 51.44464 5.36549 82 ft 19 kts 214°
2026-04-27 16:44 51.44354 5.36427 82 ft 21 kts 215°
2026-04-27 16:44 51.44220 5.36274 82 ft 25 kts 215°
2026-04-27 16:45 51.44084 5.36121 82 ft 23 kts 214°
2026-04-27 16:45 51.43978 5.36071 91 ft 8 kts 145°
2026-04-27 16:45 51.43971 5.36083 81 ft 0 kts 129°
2026-04-27 16:48 51.43968 5.36089 81 ft 5 kts 129°
2026-04-27 16:48 51.43931 5.36233 80 ft 12 kts 46°
2026-04-27 16:48 51.44023 5.36335 85 ft 37 kts 36°
2026-04-27 16:49 51.45267 5.37729 137 ft 167 kts 35°
2026-04-27 16:49 51.46245 5.38905 725 ft 185 kts 38°
2026-04-27 16:49 51.46940 5.39784 1249 ft 192 kts 38°
2026-04-27 16:49 51.47995 5.41139 2091 ft 196 kts 38°
2026-04-27 16:50 51.49113 5.42463 2798 ft 203 kts 34°
2026-04-27 16:50 51.50247 5.43674 3720 ft 198 kts 33°
2026-04-27 16:50 51.51617 5.44389 4039 ft 223 kts 357°
2026-04-27 16:50 51.53082 5.43497 4640 ft 233 kts 323°
2026-04-27 16:51 51.54093 5.41467 5335 ft 238 kts 293°
2026-04-27 16:51 51.54296 5.38847 5984 ft 240 kts 261°
2026-04-27 16:51 51.53812 5.36271 6191 ft 243 kts 250°
2026-04-27 16:51 51.53241 5.33706 6192 ft 244 kts 251°
2026-04-27 16:52 51.52694 5.31129 6203 ft 244 kts 251°
2026-04-27 16:52 51.52152 5.28524 6450 ft 248 kts 252°
2026-04-27 16:52 51.51614 5.25901 7372 ft 245 kts 252°
2026-04-27 16:52 51.51081 5.23296 8240 ft 247 kts 252°
2026-04-27 16:53 51.50606 5.20609 8919 ft 258 kts 264°
2026-04-27 16:53 51.50854 5.17629 9219 ft 281 kts 289°
2026-04-27 16:53 51.51465 5.14612 9990 ft 286 kts 287°
2026-04-27 16:53 51.52008 5.11525 10804 ft 292 kts 285°
2026-04-27 16:54 51.52549 5.08233 11028 ft 319 kts 284°
2026-04-27 16:54 51.53113 5.04643 11240 ft 343 kts 284°
2026-04-27 16:54 51.53703 5.00801 11415 ft 366 kts 283°
2026-04-27 16:54 51.54321 4.96728 11700 ft 382 kts 283°
2026-04-27 16:55 51.54951 4.92551 12386 ft 386 kts 283°
2026-04-27 16:55 51.55578 4.88366 13213 ft 386 kts 283°
2026-04-27 16:55 51.56212 4.84159 13893 ft 389 kts 283°
2026-04-27 16:55 51.56895 4.79928 14556 ft 392 kts 284°
2026-04-27 16:56 51.57608 4.75684 15222 ft 395 kts 285°
2026-04-27 16:56 51.58335 4.71408 15816 ft 398 kts 285°
2026-04-27 16:56 51.59062 4.67104 16396 ft 400 kts 284°
2026-04-27 16:56 51.59788 4.62770 16972 ft 402 kts 284°
2026-04-27 16:57 51.60476 4.58644 17480 ft 404 kts 285°
2026-04-27 16:57 51.61204 4.54264 17993 ft 407 kts 285°
2026-04-27 16:57 51.61934 4.49845 18511 ft 409 kts 284°
2026-04-27 16:57 51.62662 4.45405 18994 ft 413 kts 284°
2026-04-27 16:58 51.63393 4.40928 19484 ft 414 kts 284°
2026-04-27 16:58 51.64135 4.36428 19929 ft 417 kts 284°
2026-04-27 16:58 51.64875 4.31895 20402 ft 420 kts 284°
2026-04-27 16:58 51.65616 4.27336 20863 ft 422 kts 284°
2026-04-27 16:59 51.66358 4.22752 21305 ft 425 kts 284°
2026-04-27 16:59 51.67104 4.18129 21738 ft 427 kts 284°
2026-04-27 16:59 51.67853 4.13484 22177 ft 429 kts 283°
2026-04-27 16:59 51.68602 4.08822 22574 ft 432 kts 283°
2026-04-27 17:00 51.69856 4.01002 23223 ft 435 kts 283°
2026-04-27 17:00 51.70859 3.94726 23718 ft 438 kts 283°
2026-04-27 17:00 51.71618 3.89952 24080 ft 440 kts 283°
2026-04-27 17:01 51.72379 3.85160 24435 ft 442 kts 283°
2026-04-27 17:01 51.73197 3.80382 24783 ft 444 kts 285°
2026-04-27 17:01 51.74094 3.75604 25126 ft 445 kts 285°
2026-04-27 17:01 51.75014 3.70827 25457 ft 447 kts 285°
2026-04-27 17:02 51.75933 3.66034 25772 ft 448 kts 285°
2026-04-27 17:02 51.76844 3.61219 26084 ft 449 kts 285°
2026-04-27 17:02 51.77745 3.56391 26353 ft 449 kts 285°
2026-04-27 17:02 51.78638 3.51557 26659 ft 449 kts 285°
2026-04-27 17:03 51.79524 3.46734 27052 ft 446 kts 285°
2026-04-27 17:03 51.80402 3.41944 27451 ft 444 kts 284°
2026-04-27 17:03 51.81274 3.37171 27831 ft 442 kts 284°
2026-04-27 17:03 51.82141 3.32420 28251 ft 439 kts 284°
2026-04-27 17:04 51.83001 3.27693 28601 ft 438 kts 284°
2026-04-27 17:04 51.83857 3.22963 28922 ft 437 kts 283°
2026-04-27 17:04 51.84456 3.18163 29225 ft 435 kts 276°
2026-04-27 17:04 51.84647 3.13295 29577 ft 432 kts 269°
2026-04-27 17:05 51.84408 3.08465 29928 ft 430 kts 263°
2026-04-27 17:05 51.84045 3.03676 30278 ft 429 kts 263°
2026-04-27 17:05 51.83716 2.98889 30550 ft 429 kts 264°
2026-04-27 17:05 51.83401 2.94097 30844 ft 428 kts 264°
2026-04-27 17:06 51.83093 2.89317 31126 ft 428 kts 264°
2026-04-27 17:06 51.82783 2.84535 31411 ft 427 kts 264°
2026-04-27 17:06 51.82471 2.79774 31704 ft 426 kts 264°
2026-04-27 17:06 51.82158 2.75012 31965 ft 426 kts 264°
2026-04-27 17:07 51.81840 2.70256 32202 ft 426 kts 264°
2026-04-27 17:07 51.81519 2.65499 32456 ft 425 kts 264°
2026-04-27 17:07 51.81195 2.60760 32761 ft 424 kts 263°
2026-04-27 17:07 51.80869 2.56035 33028 ft 423 kts 263°
2026-04-27 17:08 51.80542 2.51308 33267 ft 423 kts 263°
2026-04-27 17:08 51.80212 2.46589 33497 ft 423 kts 263°
2026-04-27 17:08 51.79883 2.41873 33784 ft 422 kts 263°
2026-04-27 17:08 51.79553 2.37175 34049 ft 421 kts 263°
2026-04-27 17:09 51.79220 2.32479 34284 ft 420 kts 263°
2026-04-27 17:09 51.78890 2.27846 34466 ft 421 kts 263°
2026-04-27 17:09 51.78553 2.23135 34611 ft 423 kts 263°
2026-04-27 17:09 51.78236 2.18407 34786 ft 424 kts 264°
2026-04-27 17:10 51.77955 2.13672 34990 ft 424 kts 264°
2026-04-27 17:10 51.77686 2.08933 35179 ft 424 kts 265°
2026-04-27 17:10 51.77416 2.04184 35333 ft 425 kts 265°
2026-04-27 17:10 51.77141 1.99431 35484 ft 426 kts 264°
2026-04-27 17:11 51.76859 1.94663 35646 ft 426 kts 265°
2026-04-27 17:11 51.76282 1.85111 35964 ft 427 kts 265°
2026-04-27 17:11 51.75990 1.80335 36137 ft 427 kts 265°
2026-04-27 17:12 51.75100 1.65954 36248 ft 429 kts 264°
2026-04-27 17:13 51.74492 1.56391 36245 ft 427 kts 264°
2026-04-27 17:13 51.73872 1.46851 36239 ft 427 kts 264°
2026-04-27 17:14 51.73246 1.37321 36231 ft 427 kts 264°
2026-04-27 17:14 51.72618 1.27847 36231 ft 428 kts 264°
2026-04-27 17:15 51.71975 1.18242 36249 ft 428 kts 264°
2026-04-27 17:15 51.71328 1.08691 36244 ft 429 kts 264°
2026-04-27 17:16 51.70688 0.99195 36238 ft 430 kts 264°
2026-04-27 17:16 51.70034 0.89609 36237 ft 430 kts 264°
2026-04-27 17:17 51.69363 0.80017 36250 ft 432 kts 264°
2026-04-27 17:17 51.68666 0.70392 36232 ft 433 kts 264°
2026-04-27 17:18 51.67619 0.55916 36247 ft 434 kts 264°
2026-04-27 17:18 51.66931 0.46231 36233 ft 436 kts 264°
2026-04-27 17:19 51.66218 0.36540 36243 ft 436 kts 264°
2026-04-27 17:19 51.65484 0.26826 36242 ft 437 kts 264°
2026-04-27 17:20 51.65537 0.17131 36224 ft 435 kts 287°
2026-04-27 17:20 51.66658 0.12622 36237 ft 437 kts 298°
2026-04-27 17:20 51.68428 0.08656 36333 ft 437 kts 310°
2026-04-27 17:21 51.70539 0.05099 36174 ft 442 kts 313°
2026-04-27 17:21 51.72706 0.01601 36283 ft 440 kts 313°
2026-04-27 17:21 51.77050 -0.05371 36252 ft 440 kts 314°
2026-04-27 17:22 51.81358 -0.12401 36239 ft 440 kts 314°
2026-04-27 17:22 51.85625 -0.19458 36239 ft 438 kts 313°
2026-04-27 17:23 51.89865 -0.26507 36248 ft 436 kts 313°
2026-04-27 17:23 51.94085 -0.33546 36228 ft 436 kts 313°
2026-04-27 17:24 51.98295 -0.40584 36239 ft 434 kts 313°
2026-04-27 17:24 52.02494 -0.47627 36238 ft 433 kts 314°
2026-04-27 17:25 52.06663 -0.54636 36242 ft 431 kts 314°